Waarnemingen

Advertentie
Mijn weer
Tortosa, Spanje (8238): temperatuur & dauwpunt: 21.04.2018 08:00:00 - 27.04.2018 08:00:00 (CEST)Tortosa, Spanje (8238): windsnelheid: 21.04.2018 08:00:00 - 27.04.2018 08:00:00 (CEST)Tortosa, Spanje (8238): windrichting: 21.04.2018 08:00:00 - 27.04.2018 08:00:00 (CEST)Tortosa, Spanje (8238): luchtdruk: 21.04.2018 08:00:00 - 27.04.2018 08:00:00 (CEST)Tortosa, Spanje (8238): zicht: 21.04.2018 08:00:00 - 27.04.2018 08:00:00 (CEST)Tortosa, Spanje (8238): neerslag: 21.04.2018 08:00:00 - 27.04.2018 08:00:00 (CEST)
Datum & Tijd tt [°C] td [°C] ff [km/u] ff [kn] dd ppp [hPa] vv [km] rr [mm]
27.04.2018 08:00:00 15,9 14,1 2 1 ZZO 1012,6 4,9 -
27.04.2018 07:00:00 15,7 13,9 2 1 NW 1012,4 3,9 0,0
27.04.2018 06:00:00 16,0 14,0 4 2 ZZO 1012,6 6 0,0
27.04.2018 05:00:00 16,2 14,0 2 1 ZZW 1012,8 10 -
27.04.2018 04:00:00 16,1 14,1 2 1 ZZW 1013,4 9 0,0
27.04.2018 03:00:00 15,9 14,3 2 1 ZZO 1013,8 8 0,0
27.04.2018 02:00:00 15,5 14,0 11 6 WZW 1014,6 6 -
27.04.2018 01:00:00 15,8 13,6 9 5 WZW 1014,9 8 0,0
27.04.2018 00:00:00 16,5 13,6 8 4 ZW 1015,0 6 0,0
26.04.2018 23:00:00 17,3 13,6 8 4 ZZW 1015,4 8 -
26.04.2018 22:00:00 18,1 13,6 5 3 ZZO 1015,1 15 0,0
26.04.2018 21:00:00 19,9 13,6 11 6 Z 1014,6 18 0,0
26.04.2018 20:00:00 22,0 13,9 15 8 ZZO 1014,1 6 -
26.04.2018 19:00:00 25,1 13,0 13 7 Z 1014,1 20 0,0
26.04.2018 18:00:00 27,7 11,7 16 9 Z 1013,9 20 0,0
26.04.2018 17:00:00 28,3 10,9 15 8 ZZO 1013,9 8 -
26.04.2018 16:00:00 29,1 8,7 8 4 NO 1014,5 20 0,0
26.04.2018 15:00:00 29,0 9,2 11 6 NO 1015,2 20 0,0
26.04.2018 14:00:00 28,3 9,6 15 8 NNO 1015,5 10 -
26.04.2018 13:00:00 26,9 8,8 9 5 N 1016,3 20 0,0
26.04.2018 12:00:00 25,8 8,7 13 7 NNO 1017,3 20 0,0
26.04.2018 11:00:00 24,1 9,3 13 7 NNO 1017,8 8 -
26.04.2018 10:00:00 21,5 9,4 9 5 N 1018,3 20 0,0
26.04.2018 09:00:00 18,7 8,9 13 7 NNO 1017,8 20 0,0
26.04.2018 08:00:00 16,7 8,1 11 6 N 1017,6 8 -
26.04.2018 07:00:00 16,1 8,1 13 7 N 1016,8 20 0,0
26.04.2018 06:00:00 16,2 8,2 13 7 N 1016,8 20 0,0
26.04.2018 05:00:00 16,4 8,6 13 7 NNO 1017,1 20 -
26.04.2018 04:00:00 16,9 8,8 11 6 N 1017,4 20 0,0
26.04.2018 03:00:00 17,6 9,0 15 8 NNO 1017,7 20 0,0
26.04.2018 02:00:00 18,5 9,6 8 4 N 1018,3 20 -
26.04.2018 01:00:00 18,3 9,9 9 5 N 1018,3 20 0,0
26.04.2018 00:00:00 17,5 9,9 9 5 N 1018,3 19 0,0
25.04.2018 23:00:00 18,0 9,6 2 1 ZZO 1018,5 20 -
25.04.2018 22:00:00 18,6 9,1 5 3 ZO 1018,0 18 0,0
25.04.2018 21:00:00 19,8 8,5 11 6 ZW 1017,3 20 0,0
25.04.2018 20:00:00 22,1 8,6 8 4 Z 1016,5 8 -
25.04.2018 19:00:00 24,3 9,8 11 6 ZO 1016,7 20 0,0
25.04.2018 18:00:00 26,4 10,5 15 8 ZZO 1016,4 19 0,0
25.04.2018 17:00:00 27,3 5,5 15 8 ZO 1016,3 7 -
25.04.2018 16:00:00 29,0 7,0 16 9 ZZO 1016,7 20 0,0
25.04.2018 15:00:00 31,1 9,3 15 8 ZZO 1016,2 19 0,0
25.04.2018 14:00:00 30,2 8,0 8 4 Z 1016,5 6 -
25.04.2018 13:00:00 28,9 9,6 9 5 Z 1017,1 20 0,0
25.04.2018 12:00:00 26,8 8,2 5 3 O 1017,5 8 0,0
25.04.2018 11:00:00 24,1 9,7 4 2 ONO 1017,8 5 -
25.04.2018 10:00:00 20,4 9,3 8 4 N 1017,9 20 0,0
25.04.2018 09:00:00 16,5 10,1 5 3 N 1018,1 20 0,0
25.04.2018 08:00:00 12,3 9,3 4 2 NNO 1018,1 4,0 -
25.04.2018 07:00:00 11,9 8,7 8 4 N 1017,6 18 0,0
25.04.2018 06:00:00 12,0 9,0 8 4 NW 1017,5 15 0,0
25.04.2018 05:00:00 12,5 9,1 2 1 ONO 1016,9 17 -
25.04.2018 04:00:00 13,0 9,1 5 3 N 1017,0 15 0,0
25.04.2018 03:00:00 13,8 10,2 2 1 N 1018,1 12 0,0
25.04.2018 02:00:00 14,5 10,5 2 1 ZO 1018,3 12 -
25.04.2018 01:00:00 15,8 10,1 2 1 NW 1018,0 10 0,0
25.04.2018 00:00:00 16,3 10,6 4 2 ZZO 1018,3 18 0,0
24.04.2018 23:00:00 17,5 11,7 5 3 ZZW 1018,4 14 -
24.04.2018 22:00:00 18,7 11,7 9 5 Z 1018,2 19 0,0
24.04.2018 21:00:00 20,2 10,9 13 7 ZZW 1017,3 20 0,0
24.04.2018 20:00:00 22,6 10,1 9 5 ZZO 1016,9 8 -
24.04.2018 19:00:00 23,7 7,7 13 7 OZO 1017,1 19 0,0
24.04.2018 18:00:00 24,9 7,5 13 7 OZO 1017,2 19 0,0
24.04.2018 17:00:00 27,1 8,0 11 6 ZO 1017,3 8 -
24.04.2018 16:00:00 27,4 8,8 15 8 ZZO 1018,0 20 0,0
24.04.2018 15:00:00 28,4 8,6 13 7 ZO 1018,5 20 0,0
24.04.2018 14:00:00 28,3 8,0 15 8 ZO 1018,9 5 -
24.04.2018 13:00:00 27,2 8,1 8 4 O 1019,4 20 0,0
24.04.2018 12:00:00 26,2 10,4 8 4 ZZO 1020,0 20 0,0
24.04.2018 11:00:00 23,1 10,5 4 2 ZO 1020,3 5 -
24.04.2018 10:00:00 19,5 11,5 4 2 OZO 1020,5 11 0,0
24.04.2018 09:00:00 16,7 11,2 2 1 ZZO 1020,3 17 0,0
24.04.2018 08:00:00 14,0 10,2 9 5 NNW 1019,7 1,0 -
24.04.2018 07:00:00 13,0 9,6 9 5 N 1019,0 20 0,0
24.04.2018 06:00:00 13,3 9,7 11 6 N 1018,8 20 0,0
24.04.2018 05:00:00 13,2 9,8 4 2 N 1019,4 20 -
24.04.2018 04:00:00 13,9 9,9 5 3 N 1019,4 19 0,0
24.04.2018 03:00:00 14,9 10,1 5 3 NNW 1019,4 20 0,0
24.04.2018 02:00:00 16,0 10,1 8 4 NNW 1019,8 19 -
24.04.2018 01:00:00 16,2 10,5 5 3 N 1019,9 18 0,0
24.04.2018 00:00:00 17,5 10,4 5 3 ZW 1019,6 20 0,0
23.04.2018 23:00:00 18,0 9,6 9 5 ZW 1019,7 20 -
23.04.2018 22:00:00 19,1 9,3 11 6 ZZW 1019,3 20 0,0
23.04.2018 21:00:00 20,8 10,0 11 6 WZW 1018,9 19 0,0
23.04.2018 20:00:00 22,9 11,0 8 4 ZZW 1018,6 5 -
23.04.2018 19:00:00 25,0 11,5 9 5 ZZO 1018,5 20 0,0
23.04.2018 18:00:00 27,6 10,8 11 6 ZZO 1018,1 20 0,0
23.04.2018 17:00:00 28,1 10,3 13 7 ZO 1017,9 5 -
23.04.2018 16:00:00 28,9 10,1 15 8 ZZO 1018,5 19 0,0
23.04.2018 15:00:00 28,1 8,9 9 5 ZO 1018,4 20 0,0
23.04.2018 14:00:00 27,0 9,4 9 5 ZZO 1018,9 20 -
23.04.2018 13:00:00 26,3 9,6 5 3 ZO 1019,1 20 0,0
23.04.2018 12:00:00 24,1 10,0 4 2 Z 1019,7 20 0,0
23.04.2018 11:00:00 21,6 11,6 4 2 N 1019,7 4,0 -
23.04.2018 10:00:00 19,1 11,1 2 1 ONO 1019,5 20 0,0
23.04.2018 09:00:00 15,2 10,8 2 1 N 1019,4 14 0,0
23.04.2018 08:00:00 14,3 10,5 5 3 NW 1018,7 4,0 -
23.04.2018 07:00:00 14,0 10,4 4 2 NO 1018,5 18 0,0
23.04.2018 06:00:00 14,5 11,3 5 3 NNW 1018,2 15 0,0
23.04.2018 05:00:00 15,1 12,2 2 1 ZZW 1018,5 11 -
23.04.2018 04:00:00 15,1 12,0 9 5 W 1018,3 14 0,0
23.04.2018 03:00:00 15,7 11,1 4 2 ZZW 1018,7 12 0,0
23.04.2018 02:00:00 16,3 10,8 5 3 Z 1018,6 20 -
23.04.2018 01:00:00 16,4 10,7 8 4 Z 1018,7 20 0,0
23.04.2018 00:00:00 16,6 10,2 11 6 Z 1018,5 20 0,0
22.04.2018 23:00:00 16,6 10,2 9 5 Z 1018,6 20 -
22.04.2018 22:00:00 17,7 10,1 9 5 ZZO 1018,2 20 0,0
22.04.2018 21:00:00 19,1 9,6 9 5 ZZO 1017,6 20 0,0
22.04.2018 20:00:00 20,7 9,3 9 5 ZO 1017,0 5 -
22.04.2018 19:00:00 21,7 9,2 15 8 ZO 1016,8 20 0,0
22.04.2018 18:00:00 22,6 9,0 15 8 ZO 1016,4 20 0,0
22.04.2018 17:00:00 24,4 9,5 15 8 ZO 1016,1 8 -
22.04.2018 16:00:00 25,0 10,1 15 8 ZZO 1017,2 20 0,0
22.04.2018 15:00:00 23,2 9,2 18 10 ZO 1017,2 20 0,0
22.04.2018 14:00:00 25,7 9,9 15 8 ZO 1017,6 5 -
22.04.2018 13:00:00 25,6 11,7 11 6 ZO 1018,3 20 0,0
22.04.2018 12:00:00 23,2 12,5 9 5 Z 1018,5 19 0,0
22.04.2018 11:00:00 20,7 11,3 4 2 O 1018,8 3,0 -
22.04.2018 10:00:00 17,7 11,9 2 1 ZZO 1018,8 19 0,0
22.04.2018 09:00:00 14,5 10,5 2 1 N 1018,7 16 0,0
22.04.2018 08:00:00 11,7 9,4 5 3 NW 1018,5 5 -
22.04.2018 07:00:00 11,7 9,3 8 4 NNW 1018,3 15 0,0
22.04.2018 06:00:00 12,6 9,6 0 0 N 1018,1 15 0,0
22.04.2018 05:00:00 13,0 9,8 4 2 N 1018,5 14 -
22.04.2018 04:00:00 13,3 10,5 4 2 NW 1018,7 11 0,0
22.04.2018 03:00:00 13,4 10,2 11 6 W 1018,9 12 0,0
22.04.2018 02:00:00 13,8 9,8 5 3 ZW 1019,2 15 -
22.04.2018 01:00:00 14,4 9,8 5 3 Z 1019,4 11 0,0
22.04.2018 00:00:00 15,1 9,5 4 2 Z 1019,6 16 0,0
21.04.2018 23:00:00 16,0 9,4 11 6 ZZO 1019,8 - -
21.04.2018 22:00:00 16,9 9,6 9 5 ZZO 1019,9 7 0,0
21.04.2018 21:00:00 18,0 9,6 8 4 ZZO 1019,3 20 0,0
21.04.2018 20:00:00 19,4 9,6 11 6 ZO 1019,2 8 -
21.04.2018 19:00:00 20,4 10,5 13 7 ZO 1019,2 20 0,0
21.04.2018 18:00:00 21,9 10,4 15 8 ZO 1019,3 20 0,0
21.04.2018 17:00:00 23,4 10,4 18 10 ZO 1019,3 8 -
21.04.2018 16:00:00 25,0 10,1 18 10 ZO 1019,5 20 0,0
21.04.2018 15:00:00 25,5 10,5 15 8 ZO 1019,7 20 0,0
21.04.2018 14:00:00 26,8 9,6 13 7 ZO 1020,2 8 -
21.04.2018 13:00:00 25,5 9,7 13 7 ZO 1020,7 20 0,0
21.04.2018 12:00:00 24,6 10,1 5 3 ZZO 1021,2 20 0,0
21.04.2018 11:00:00 21,8 10,9 4 2 ZZO 1021,2 4,0 -
21.04.2018 10:00:00 18,9 11,2 4 2 NNO 1021,1 19 0,0
21.04.2018 09:00:00 14,7 10,5 4 2 N 1021,1 18 0,0
21.04.2018 08:00:00 10,8 9,6 4 2 N 1021,2 3,0 -

tt = temperatuur
td = dauwpunt
ff = windsnelheid
dd = windrichting
ppp = luchtdruk
vv = zicht
rr = neerslag

Weerstations in de omgeving